一网星座-0247星 (ONEWEB-0247 )

导读

ONEWEB-0247是英国OneWeb星座的低轨通信卫星,由OneWeb与空客合资企业制造,于2021年5月28日发射升空。卫星重约147.5公斤,运行于1200公里近极地轨道,配备Ku波段通信天线,采用“弯管式”设计,服务全球宽带互联网接入。遵循空间碎片管控要求,寿命结束后将自动离轨销毁,为全球泛在连接提供支撑。

Basic Information
目录编号:
48777
目录名称:
ONEWEB-0247
国际标识:
2021-045L
轨道中心:
EARTH
卫星名称:
一网星座-0247星
卫星全名:
一网星座-0247星 (ONEWEB-0247 )
卫星状态:
在轨 (已飞行1843 天)
发射日期:
2021-05-28 UTC
国别 :
英国 (GB)
星等 :
--
Orbit Information
数据来源 国际轨道数据 AOE轨道数据
星历时间 2026-06-14T03:13:08+0800
16小时前
查看轨道信息
2026-06-14T03:00:00+0800
16小时前
查看轨道信息
半长轴 7579.913km 7579.92km
偏心率 0.0001121 0.0001136
轨道倾角 87.900° 87.901°
近地点辐角 99.802° 113.567°
升交点赤经 259.888° 259.890°
平近点角 260.324° 203.386°
近地点 1200.926km 1200.921km
远地点 1202.626km 1202.645km
周期 109.460分钟 109.460分钟
每日圈数 13.155472 13.155456
Detailed Information
平衡模式:
三轴稳定
覆盖范围:
全球
运营商:
一网卫星公司
运营商所在国:
英国
制造商(研发单位):
一网卫星公司
制造商所在国:
英国
使用方式:
暂无
Satellite Introduction
OneWeb卫星网络由648颗重约125公斤的微型卫星组成,运行在1200公里的轨道上。 每颗卫星都能够提供至少每秒8千兆位的吞吐量,以使用其高吞吐量的Ku频段有效载荷为家庭和移动平台提供互联网接入。该卫星仍在工作。
2D Orbit Map
3D Orbit Map
Orbit Altitude Analysis Chart
Orbit Inclination Analysis Chart
Orbit Comprehensive Analysis Chart
View Comprehensive Chart